This is the latest recevied weather packets stored in our database for station/object SR8NGO-1. If no packets are shown the sender has not sent any weather packets the latest 1 day(s).
| Time | Temp. | Humidity | Pressure | Rain* | Wind** | Luminosity | Snow |
|---|---|---|---|---|---|---|---|
| 1778024688 | 12.78° C | 57% | 997.4 hPa | 124.97 mm | 3.13 m/s, 177° | - | - |
| 1778024448 | 12.78° C | 57% | 997.5 hPa | 124.97 mm | 2.68 m/s, 183° | - | - |
| 1778024208 | 13.89° C | 57% | 997.4 hPa | 124.97 mm | 3.58 m/s, 179° | - | - |
| 1778023968 | 13.89° C | 57% | 997.4 hPa | 124.97 mm | 3.13 m/s, 172° | - | - |
| 1778023728 | 13.89° C | 57% | 997.5 hPa | 124.97 mm | 3.58 m/s, 172° | - | - |
| 1778023488 | 13.89° C | 57% | 997.5 hPa | 124.97 mm | 3.13 m/s, 172° | - | - |
| 1778023248 | 13.89° C | 57% | 997.5 hPa | 124.97 mm | 4.47 m/s, 183° | - | - |
| 1778023008 | 13.89° C | 56% | 997.5 hPa | 124.97 mm | 3.13 m/s, 179° | - | - |
| 1778022768 | 13.89° C | 56% | 997.4 hPa | 124.97 mm | 3.13 m/s, 173° | - | - |
| 1778022528 | 13.89° C | 56% | 997.5 hPa | 124.97 mm | 3.13 m/s, 172° | - | - |
| 1778022288 | 13.89° C | 56% | 997.5 hPa | 124.97 mm | 4.02 m/s, 156° | - | - |
| 1778022048 | 13.89° C | 56% | 997.5 hPa | 124.97 mm | 4.02 m/s, 179° | - | - |
| 1778021808 | 13.89° C | 56% | 997.5 hPa | 124.97 mm | 3.13 m/s, 184° | - | - |
| 1778021568 | 13.89° C | 56% | 997.5 hPa | 124.97 mm | 3.13 m/s, 179° | - | - |
| 1778021328 | 13.89° C | 56% | 997.5 hPa | 124.97 mm | 3.58 m/s, 184° | - | - |
| 1778021088 | 13.89° C | 56% | 997.5 hPa | 124.97 mm | 2.68 m/s, 183° | - | - |
| 1778020848 | 15° C | 56% | 997.5 hPa | 124.97 mm | 3.13 m/s, 179° | - | - |
| 1778020608 | 13.89° C | 56% | 997.6 hPa | 124.97 mm | 3.13 m/s, 183° | - | - |
| 1778020368 | 13.89° C | 56% | 997.6 hPa | 124.97 mm | 2.68 m/s, 200° | - | - |
| 1778020128 | 15° C | 55% | 997.6 hPa | 124.97 mm | 3.13 m/s, 183° | - | - |
| 1778019888 | 15° C | 55% | 997.6 hPa | 124.97 mm | 2.24 m/s, 173° | - | - |
| 1778019648 | 15° C | 55% | 997.6 hPa | 124.97 mm | 2.24 m/s, 179° | - | - |
| 1778019408 | 15° C | 55% | 997.6 hPa | 124.97 mm | 2.68 m/s, 177° | - | - |
| 1778019168 | 15° C | 55% | 997.6 hPa | 124.97 mm | 1.79 m/s, 162° | - | - |
| 1778018928 | 15° C | 55% | 997.6 hPa | 124.97 mm | 2.68 m/s, 151° | - | - |
* Rain latest hour (hover to see other rain measurements)
** Current wind speed in m/s (hover to see current wind gust speed)